IDEFIX & ARIANE 42P R/B (27422 NORAD) Tracking and Keplerian Element Data

This shows tracking and keplerian element data for the satellite.

Feedback or suggestion? Click here.




ElementValue
Catalog27422
NameIDEFIX & ARIANE 42P R/B
Epoch Orbit86500
Epoch Day351.52081406
Epoch Year2018
RAAN327.6963
Inclination98.2775
Eccentricity0.0013243
Argument of Perigee54.8108
Mean Anonmoly305.4313
Mean Motion14.29266718
Decay Rate-1.4E-07
L11 27422U 02021B 18351.52081406 -.00000014 00000-0 10554-4 0 9991
L22 27422 98.2775 327.6963 0013243 54.8108 305.4313 14.29266718865006

Live tracking and technical data element details for IDEFIX & ARIANE 42P R/B (NORAD 27422). IDEFIX & ARIANE 42P R/B can be tracked NOW for your location showing map with azimuth and elevation plus other details from your city location.

Track the satellite on the map from your city or location and see movement details for azimuth, elevation, latitude, longitude, range, height, and movement on the map or in text.







IsCatalogInMostPopularTable: catalog: 27422, numindb: 60
Update: records affected: 1



GetName: 27422 IDEFIX & ARIANE 42P R/B

Hit Count: updated at: Tue, 18 Dec 2018 22:08:29 GMT